CAPE
638 995 1356 1527 1736 1837 1919 1990 2082 2225 2395 2385 2231 2196 2178 2173 2177 2164 2184 2198 2268 2116 1846 1821 2061 2154 2050 1831 1563 1420 1237 1007 921 739 815 1002 1535 1681 1549 1505 1697 1559 2320
839 1109 1285 1439 1649 1839 1945 1977 2055 2182 2280 2198 2207 1984 1962 1589 1837 1921 1994 2125 2212 1987 1883 1593 1248 1132 1108 941 1004 1319 1398 1419 1371 1198 1051 796 708 1300 1430 1568 1175 1585 1973
976 1126 1197 1345 1586 1758 1939 2014 2114 2199 2132 1852 1571 1373 1171 1051 997 1067 1023 1057 1184 1109 1060 908 758 690 525 579 470 604 572 491 510 710 1103 440 330 845 1666 1537 1332 1749 1898
969 985 1074 1368 1571 1811 1970 2068 2012 1892 1591 1330 1211 1033 1021 900 926 737 530 485 672 499 395 350 358 340 328 343 334 315 298 275 241 224 224 516 526 888 1974 1900 1652 1619 2175
923 870 1154 1325 1696 1892 1863 1700 1667 1588 1391 1341 1040 851 688 829 516 380 407 475 476 317 197 129 87 61 47 53 69 91 118 153 162 163 190 208 545 967 2112 1765 1664 1719 1768
1031 819 997 1204 1408 1529 1472 1376 1225 1044 933 867 656 432 295 298 418 346 129 87 21 0 0 0 0 0 0 0 0 0 0 0 0 1 59 163 258 1021 1871 1794 1685 1506 1691
742 621 598 718 913 1162 1131 841 627 549 422 298 220 204 56 113 51 8 0 0 0 0 0 0 0 0 0 0 0 0 0 0 0 0 0 51 169 1116 1662 1635 1434 1312 1385
414 511 981 808 808 680 709 464 448 268 249 104 23 3 0 0 0 0 0 0 0 0 0 0 0 0 0 0 0 0 0 0 0 0 0 0 38 616 947 1431 1516 1274 1186
396 444 962 977 725 567 456 308 284 237 29 1 0 0 0 0 0 0 0 0 0 0 0 0 0 0 0 0 0 0 0 0 0 0 0 0 0 127 548 677 757 688 892
453 231 492 684 574 305 265 323 274 116 21 0 0 0 0 0 0 0 0 0 0 0 0 0 0 0 0 0 0 0 0 0 0 0 0 0 0 0 0 103 394 510 630
254 270 184 312 186 233 289 291 211 118 32 3 0 0 0 0 0 0 0 0 0 0 0 0 0 0 0 0 0 0 0 0 0 0 0 0 0 0 0 0 0 88 438
153 150 213 239 174 247 286 264 203 149 59 9 0 0 0 0 0 0 0 0 0 0 0 0 0 0 0 0 0 0 0 0 0 0 0 0 0 0 0 0 0 0 0
189 204 173 74 210 254 274 252 225 185 95 22 0 0 0 0 0 0 0 0 0 0 0 0 0 0 0 0 0 0 0 0 0 0 0 0 0 0 0 0 0 0 0
155 81 207 66 214 250 276 282 271 243 153 11 0 0 0 0 0 0 0 0 0 0 0 0 0 0 0 0 0 0 0 0 0 0 0 0 0 0 0 5 13 12 8
308 249 49 99 228 293 317 306 342 278 81 0 0 0 0 0 0 0 0 0 0 0 0 0 0 0 0 0 0 0 0 0 0 0 0 0 0 0 10 12 19 14 8
246 161 7 165 160 239 275 352 419 215 1 0 0 0 0 0 0 0 0 0 0 0 0 0 0 0 0 0 0 0 0 0 0 0 0 0 0 0 1 1 0 0 2
235 181 145 203 91 132 244 411 333 91 0 0 0 0 0 0 0 0 0 0 0 0 0 0 0 0 0 0 0 0 0 0 0 0 0 0 0 0 0 0 0 0 1
204 132 88 167 32 85 314 421 199 7 0 0 0 0 0 0 0 0 0 0 0 0 0 0 0 0 0 0 0 0 0 0 0 0 0 0 0 0 0 0 0 0 0
199 119 117 61 37 81 197 285 133 14 0 0 0 0 0 0 0 0 0 0 0 0 0 0 0 0 0 0 0 0 0 0 0 0 0 0 0 0 0 0 0 0 0
199 95 98 113 55 225 258 282 105 76 46 0 0 0 0 0 0 0 0 0 0 0 0 0 0 0 0 0 0 0 0 0 0 0 0 0 0 0 0 0 0 0 0
235 97 167 276 229 257 222 142 148 105 98 80 0 0 0 0 0 0 0 0 0 0 0 0 0 0 0 0 0 0 0 0 0 0 0 0 0 0 0 0 0 0 0
282 170 193 266 196 225 167 128 172 93 81 8 0 0 0 0 0 0 0 0 0 0 0 0 0 0 0 0 0 0 0 0 0 0 0 0 0 0 0 0 0 0 0
278 372 326 192 188 253 313 96 188 119 47 18 0 0 0 0 0 0 0 0 0 0 0 0 0 0 0 0 0 0 0 0 0 0 0 0 0 0 0 0 0 0 0
357 488 523 327 167 265 235 60 123 114 87 29 0 0 0 0 0 0 0 0 0 0 0 0 0 0 0 0 0 0 0 0 0 0 0 0 0 0 0 0 0 0 0
418 580 562 488 212 126 141 27 83 140 89 9 0 0 0 0 0 0 0 0 0 0 0 0 0 0 0 0 0 0 0 0 0 0 0 0 0 0 0 0 0 0 0
443 648 625 512 366 197 178 55 25 111 98 63 0 0 0 0 0 0 0 0 0 0 0 0 0 0 0 0 0 0 0 0 0 0 0 0 0 0 0 0 0 0 0
CIN
-453 -358 -263 -222 -176 -142 -122 -107 -86 -61 -41 -28 -27 -26 -25 -15 -5 -3 -2 -1 -0 -0 -0 -0 -0 -0 -0 -0 -0 -1 -8 -24 -28 -48 -44 -27 -5 -2 -5 -3 -5 -7 -0
-421 -323 -281 -242 -184 -128 -108 -92 -71 -48 -32 -28 -22 -29 -26 -59 -24 -12 -4 -0 -0 -0 -0 -1 -7 -6 -8 -17 -18 -1 -0 -1 -3 -14 -33 -52 -12 -20 -14 -14 -23 -17 -5
-371 -303 -280 -235 -181 -111 -80 -62 -48 -29 -27 -50 -70 -84 -120 -136 -131 -111 -98 -74 -35 -35 -30 -26 -35 -32 -59 -50 -72 -51 -60 -80 -98 -72 -32 -86 -32 -37 -10 -22 -25 -11 -10
-332 -313 -282 -187 -157 -94 -62 -44 -41 -35 -66 -98 -113 -131 -138 -162 -145 -176 -195 -193 -119 -143 -157 -132 -127 -111 -102 -97 -92 -96 -98 -98 -109 -111 -141 -101 -63 -53 -6 -18 -23 -25 -7
-206 -286 -218 -164 -105 -68 -62 -72 -64 -57 -79 -90 -127 -153 -185 -154 -204 -234 -193 -178 -148 -170 -205 -233 -242 -254 -248 -236 -200 -171 -149 -133 -109 -104 -107 -132 -94 -36 -17 -23 -25 -29 -28
-197 -255 -208 -155 -123 -99 -93 -96 -105 -129 -130 -149 -183 -232 -246 -248 -213 -215 -267 -283 -316 -8 -0 -0 -0 -0 -0 -0 -0 -0 -0 -0 -0 -4 -111 -132 -121 -28 -6 -13 -29 -40 -32
-244 -318 -313 -256 -214 -148 -131 -165 -194 -206 -235 -265 -267 -267 -297 -282 -312 -267 -0 -0 -0 -0 -0 -0 -0 -0 -0 -0 -0 -0 -0 -0 -0 -0 -0 -203 -149 -38 -8 -7 -19 -32 -37
-304 -316 -197 -198 -182 -191 -163 -195 -194 -231 -228 -271 -343 -190 -0 -0 -0 -0 -0 -0 -0 -0 -0 -0 -0 -0 -0 -0 -0 -0 -0 -0 -0 -0 -0 -0 -299 -36 -7 -10 -21 -30 -25
-274 -281 -177 -168 -196 -204 -198 -217 -190 -151 -309 -90 -0 -0 -0 -0 -0 -0 -0 -0 -0 -0 -0 -0 -0 -0 -0 -0 -0 -0 -0 -0 -0 -0 -0 -0 -0 -183 -21 -3 -0 -2 -11
-292 -289 -245 -202 -219 -273 -278 -207 -155 -116 -120 -0 -0 -0 -0 -0 -0 -0 -0 -0 -0 -0 -0 -0 -0 -0 -0 -0 -0 -0 -0 -0 -0 -0 -0 -0 -0 -0 -0 -178 -23 -6 -0
-346 -311 -326 -253 -289 -257 -215 -181 -143 -121 -123 -82 -0 -0 -0 -0 -0 -0 -0 -0 -0 -0 -0 -0 -0 -0 -0 -0 -0 -0 -0 -0 -0 -0 -0 -0 -0 -0 -0 -0 -0 -88 -6
-370 -201 -311 -256 -264 -225 -206 -177 -131 -122 -113 -95 -0 -0 -0 -0 -0 -0 -0 -0 -0 -0 -0 -0 -0 -0 -0 -0 -0 -0 -0 -0 -0 -0 -0 -0 -0 -0 -0 -0 -0 -0 -0
-209 -280 -115 -314 -221 -192 -183 -154 -126 -103 -99 -112 -0 -0 -0 -0 -0 -0 -0 -0 -0 -0 -0 -0 -0 -0 -0 -0 -0 -0 -0 -0 -0 -0 -0 -0 -0 -0 -0 -0 -0 -0 -0
-56 -338 -149 -173 -201 -169 -156 -137 -106 -86 -88 -56 -0 -0 -0 -0 -0 -0 -0 -0 -0 -0 -0 -0 -0 -0 -0 -0 -0 -0 -0 -0 -0 -0 -0 -0 -0 -0 -0 -0 -0 -0 -0
-41 -28 -301 -147 -212 -185 -157 -133 -125 -98 -100 -0 -0 -0 -0 -0 -0 -0 -0 -0 -0 -0 -0 -0 -0 -0 -0 -0 -0 -0 -0 -0 -0 -0 -0 -0 -0 -0 -0 -0 -0 -0 -0
-71 -17 -299 -151 -161 -153 -148 -141 -104 -117 -43 -0 -0 -0 -0 -0 -0 -0 -0 -0 -0 -0 -0 -0 -0 -0 -0 -0 -0 -0 -0 -0 -0 -0 -0 -0 -0 -0 -0 -0 -0 -0 -0
-23 -25 -29 -168 -112 -148 -125 -98 -108 -116 -0 -0 -0 -0 -0 -0 -0 -0 -0 -0 -0 -0 -0 -0 -0 -0 -0 -0 -0 -0 -0 -0 -0 -0 -0 -0 -0 -0 -0 -0 -0 -0 -0
-31 -60 -160 -124 -111 -171 -99 -98 -111 -17 -0 -0 -0 -0 -0 -0 -0 -0 -0 -0 -0 -0 -0 -0 -0 -0 -0 -0 -0 -0 -0 -0 -0 -0 -0 -0 -0 -0 -0 -0 -0 -0 -0
-74 -110 -196 -171 -112 -119 -114 -100 -110 -102 -0 -0 -0 -0 -0 -0 -0 -0 -0 -0 -0 -0 -0 -0 -0 -0 -0 -0 -0 -0 -0 -0 -0 -0 -0 -0 -0 -0 -0 -0 -0 -0 -0
-109 -167 -250 -213 -192 -102 -83 -82 -111 -53 -90 -0 -0 -0 -0 -0 -0 -0 -0 -0 -0 -0 -0 -0 -0 -0 -0 -0 -0 -0 -0 -0 -0 -0 -0 -0 -0 -0 -0 -0 -0 -0 -0
-123 -249 -279 -211 -169 -108 -115 -116 -77 -66 -58 -44 -0 -0 -0 -0 -0 -0 -0 -0 -0 -0 -0 -0 -0 -0 -0 -0 -0 -0 -0 -0 -0 -0 -0 -0 -0 -0 -0 -0 -0 -0 -0
-165 -239 -269 -258 -209 -147 -101 -124 -79 -61 -45 -30 -0 -0 -0 -0 -0 -0 -0 -0 -0 -0 -0 -0 -0 -0 -0 -0 -0 -0 -0 -0 -0 -0 -0 -0 -0 -0 -0 -0 -0 -0 -0
-184 -230 -255 -284 -249 -182 -111 -105 -71 -50 -57 -28 -7 -0 -0 -0 -0 -0 -0 -0 -0 -0 -0 -0 -0 -0 -0 -0 -0 -0 -0 -0 -0 -0 -0 -0 -0 -0 -0 -0 -0 -0 -0
-183 -193 -158 -151 -228 -171 -113 -96 -98 -67 -31 -24 -2 -0 -0 -0 -0 -0 -0 -0 -0 -0 -0 -0 -0 -0 -0 -0 -0 -0 -0 -0 -0 -0 -0 -0 -0 -0 -0 -0 -0 -0 -0
-126 -208 -172 -119 -60 -187 -117 -114 -95 -81 -38 -59 -0 -0 -0 -0 -0 -0 -0 -0 -0 -0 -0 -0 -0 -0 -0 -0 -0 -0 -0 -0 -0 -0 -0 -0 -0 -0 -0 -0 -0 -0 -0
-158 -163 -135 -116 -64 -89 -71 -68 -116 -37 -20 -19 -20 -0 -0 -0 -0 -0 -0 -0 -0 -0 -0 -0 -0 -0 -0 -0 -0 -0 -0 -0 -0 -0 -0 -0 -0 -0 -0 -0 -0 -0 -0
Wind_Speed
30 34 39 41 38 36 36 35 35 34 36 35 33 32 32 29 26 27 27 26 26 26 25 23 23 24 23 22 19 19 18 16 15 14 12 11 10 12 13 13 13 16 18
40 33 37 41 41 38 38 37 37 35 37 37 35 35 34 33 32 30 29 27 28 28 28 27 24 22 22 19 20 18 16 13 11 11 8 7 6 6 11 12 9 16 18
41 37 35 40 44 41 40 40 39 36 37 39 38 34 34 33 32 32 30 27 25 25 25 23 22 20 18 17 17 15 13 11 12 10 7 6 7 5 5 10 11 14 18
46 41 36 38 44 43 42 42 42 38 36 36 37 36 35 35 33 32 31 27 23 22 21 20 19 19 18 17 17 16 14 11 11 9 5 3 4 3 11 14 12 16 17
44 42 39 40 44 46 45 45 43 38 35 37 37 38 37 35 33 34 31 29 26 23 20 19 nan nan nan nan nan nan 16 16 13 10 7 4 6 7 16 20 17 18 19
43 42 42 44 47 49 48 47 44 41 36 37 37 38 38 37 35 34 30 nan nan nan nan nan nan nan nan nan nan nan nan nan nan nan nan 9 8 8 8 14 15 14 16
42 42 42 42 45 48 48 48 44 40 38 38 36 39 nan 39 nan nan nan nan nan nan nan nan nan nan nan nan nan nan nan nan nan nan nan nan 11 13 4 11 15 17 17
47 44 42 46 45 45 45 45 42 40 39 38 nan nan nan nan nan nan nan nan nan nan nan nan nan nan nan nan nan nan nan nan nan nan nan nan nan 30 31 32 15 16 18
45 42 38 42 45 45 44 45 42 39 nan nan nan nan nan nan nan nan nan nan nan nan nan nan nan nan nan nan nan nan nan nan nan nan nan nan nan 32 33 34 34 34 36
44 44 39 40 39 39 40 45 43 40 nan nan nan nan nan nan nan nan nan nan nan nan nan nan nan nan nan nan nan nan nan nan nan nan nan nan nan nan nan 34 36 38 37
42 45 41 40 40 38 38 39 44 44 nan nan nan nan nan nan nan nan nan nan nan nan nan nan nan nan nan nan nan nan nan nan nan nan nan nan nan nan nan nan nan nan 38
42 42 42 41 39 39 38 35 35 36 nan nan nan nan nan nan nan nan nan nan nan nan nan nan nan nan nan nan nan nan nan nan nan nan nan nan nan nan nan nan nan nan nan
46 43 43 nan 38 38 39 34 33 33 nan nan nan nan nan nan nan nan nan nan nan nan nan nan nan nan nan nan nan nan nan nan nan nan nan nan nan nan nan nan nan nan nan
46 nan 45 nan 40 38 38 35 34 33 37 nan nan nan nan nan nan nan nan nan nan nan nan nan nan nan nan nan nan nan nan nan nan nan nan nan nan nan nan nan nan nan nan
45 47 nan nan 40 40 40 35 35 35 nan nan nan nan nan nan nan nan nan nan nan nan nan nan nan nan nan nan nan nan nan nan nan nan nan nan nan nan nan nan nan nan nan
47 47 nan 41 39 39 37 39 36 39 nan nan nan nan nan nan nan nan nan nan nan nan nan nan nan nan nan nan nan nan nan nan nan nan nan nan nan nan nan nan nan nan nan
44 47 41 40 nan 40 38 39 39 nan nan nan nan nan nan nan nan nan nan nan nan nan nan nan nan nan nan nan nan nan nan nan nan nan nan nan nan nan nan nan nan nan nan
46 44 nan 39 nan nan 41 39 40 nan nan nan nan nan nan nan nan nan nan nan nan nan nan nan nan nan nan nan nan nan nan nan nan nan nan nan nan nan nan nan nan nan nan
44 45 42 nan nan nan 44 42 43 nan nan nan nan nan nan nan nan nan nan nan nan nan nan nan nan nan nan nan nan nan nan nan nan nan nan nan nan nan nan nan nan nan nan
37 nan nan 43 nan 46 46 46 42 nan nan nan nan nan nan nan nan nan nan nan nan nan nan nan nan nan nan nan nan nan nan nan nan nan nan nan nan nan nan nan nan nan nan
36 nan 38 43 45 45 47 49 46 45 nan nan nan nan nan nan nan nan nan nan nan nan nan nan nan nan nan nan nan nan nan nan nan nan nan nan nan nan nan nan nan nan nan
33 35 37 39 44 44 46 47 47 nan nan nan nan nan nan nan nan nan nan nan nan nan nan nan nan nan nan nan nan nan nan nan nan nan nan nan nan nan nan nan nan nan nan
31 31 35 42 43 44 49 nan 52 53 nan nan nan nan nan nan nan nan nan nan nan nan nan nan nan nan nan nan nan nan nan nan nan nan nan nan nan nan nan nan nan nan nan
31 32 35 43 45 46 51 nan 55 52 nan nan nan nan nan nan nan nan nan nan nan nan nan nan nan nan nan nan nan nan nan nan nan nan nan nan nan nan nan nan nan nan nan
42 38 29 34 40 45 49 nan nan 53 nan nan nan nan nan nan nan nan nan nan nan nan nan nan nan nan nan nan nan nan nan nan nan nan nan nan nan nan nan nan nan nan nan
50 45 38 40 41 37 46 nan nan 56 nan nan nan nan nan nan nan nan nan nan nan nan nan nan nan nan nan nan nan nan nan nan nan nan nan nan nan nan nan nan nan nan nan
Wind_Direction
306 306 310 306 303 301 299 296 296 292 289 286 281 279 278 276 274 273 273 273 275 274 271 265 261 260 262 263 261 254 254 257 257 250 246 256 272 295 301 302 302 305 310
303 309 308 304 303 301 298 297 293 288 286 286 283 281 278 281 277 275 271 267 268 270 266 261 257 257 257 257 255 251 247 245 249 245 241 252 262 296 323 316 300 309 311
305 308 302 302 301 301 297 295 292 287 284 284 282 282 285 285 283 280 275 272 272 266 261 257 254 252 254 252 249 246 239 229 224 217 205 277 290 334 353 325 314 326 318
306 304 303 302 300 300 299 296 292 287 285 285 286 284 283 283 283 281 280 276 268 261 257 254 251 245 242 243 241 246 247 236 231 221 276 293 300 23 10 334 339 343 336
300 304 302 301 300 298 298 295 292 287 283 283 284 284 283 284 285 284 281 279 273 262 252 245 nan nan nan nan nan nan 234 231 221 239 269 259 270 221 335 345 348 338 331
297 298 293 296 297 297 296 293 288 283 281 281 282 281 282 282 283 281 282 nan nan nan nan nan nan nan nan nan nan nan nan nan nan nan nan 220 213 214 312 344 348 342 336
292 293 291 291 291 296 297 297 293 288 281 280 282 284 nan 282 nan nan nan nan nan nan nan nan nan nan nan nan nan nan nan nan nan nan nan nan 208 208 239 338 339 330 327
289 293 297 295 292 293 295 294 289 280 283 289 nan nan nan nan nan nan nan nan nan nan nan nan nan nan nan nan nan nan nan nan nan nan nan nan nan 231 237 238 266 311 322
288 291 296 294 293 292 292 287 283 286 nan nan nan nan nan nan nan nan nan nan nan nan nan nan nan nan nan nan nan nan nan nan nan nan nan nan nan 231 239 243 245 245 244
291 294 293 291 291 290 290 293 292 286 nan nan nan nan nan nan nan nan nan nan nan nan nan nan nan nan nan nan nan nan nan nan nan nan nan nan nan nan nan 246 249 251 249
295 298 294 291 287 286 287 293 294 290 nan nan nan nan nan nan nan nan nan nan nan nan nan nan nan nan nan nan nan nan nan nan nan nan nan nan nan nan nan nan nan nan 256
302 298 296 292 289 291 291 289 285 284 nan nan nan nan nan nan nan nan nan nan nan nan nan nan nan nan nan nan nan nan nan nan nan nan nan nan nan nan nan nan nan nan nan
302 298 296 nan 289 289 287 285 281 276 nan nan nan nan nan nan nan nan nan nan nan nan nan nan nan nan nan nan nan nan nan nan nan nan nan nan nan nan nan nan nan nan nan
302 nan 297 nan 287 282 282 284 281 278 279 nan nan nan nan nan nan nan nan nan nan nan nan nan nan nan nan nan nan nan nan nan nan nan nan nan nan nan nan nan nan nan nan
302 299 nan nan 288 289 289 283 281 279 nan nan nan nan nan nan nan nan nan nan nan nan nan nan nan nan nan nan nan nan nan nan nan nan nan nan nan nan nan nan nan nan nan
300 299 nan 291 285 282 280 284 280 280 nan nan nan nan nan nan nan nan nan nan nan nan nan nan nan nan nan nan nan nan nan nan nan nan nan nan nan nan nan nan nan nan nan
297 296 298 288 nan 279 277 277 276 nan nan nan nan nan nan nan nan nan nan nan nan nan nan nan nan nan nan nan nan nan nan nan nan nan nan nan nan nan nan nan nan nan nan
298 299 nan 285 nan nan 273 272 272 nan nan nan nan nan nan nan nan nan nan nan nan nan nan nan nan nan nan nan nan nan nan nan nan nan nan nan nan nan nan nan nan nan nan
304 300 294 nan nan nan 273 268 268 nan nan nan nan nan nan nan nan nan nan nan nan nan nan nan nan nan nan nan nan nan nan nan nan nan nan nan nan nan nan nan nan nan nan
307 nan nan 285 nan 280 275 270 266 nan nan nan nan nan nan nan nan nan nan nan nan nan nan nan nan nan nan nan nan nan nan nan nan nan nan nan nan nan nan nan nan nan nan
304 nan 303 293 287 279 279 279 276 272 nan nan nan nan nan nan nan nan nan nan nan nan nan nan nan nan nan nan nan nan nan nan nan nan nan nan nan nan nan nan nan nan nan
314 304 301 297 292 283 277 276 271 nan nan nan nan nan nan nan nan nan nan nan nan nan nan nan nan nan nan nan nan nan nan nan nan nan nan nan nan nan nan nan nan nan nan
320 325 310 299 291 282 280 nan 266 267 nan nan nan nan nan nan nan nan nan nan nan nan nan nan nan nan nan nan nan nan nan nan nan nan nan nan nan nan nan nan nan nan nan
318 307 302 301 294 284 282 nan 280 272 nan nan nan nan nan nan nan nan nan nan nan nan nan nan nan nan nan nan nan nan nan nan nan nan nan nan nan nan nan nan nan nan nan
302 309 293 298 291 284 284 nan nan 274 nan nan nan nan nan nan nan nan nan nan nan nan nan nan nan nan nan nan nan nan nan nan nan nan nan nan nan nan nan nan nan nan nan
300 299 290 289 286 281 280 nan nan 274 nan nan nan nan nan nan nan nan nan nan nan nan nan nan nan nan nan nan nan nan nan nan nan nan nan nan nan nan nan nan nan nan nan